Wind_Speed
31 31 31 32 32 32 29 27 25 24 24 23 22 22 21 20 19 19 17 16 16 15 14 13 12 12 11 11 10 9 9 8 7 6 5 5 4 3 2 2 1 1 1 1 0 0 0 1 1
32 32 33 34 34 33 30 28 26 26 25 24 24 23 23 22 21 20 19 18 17 17 16 15 14 14 13 13 12 11 10 9 8 7 6 6 5 4 3 2 2 2 1 1 1 1 1 1 2
33 33 34 35 35 33 30 29 28 27 26 26 25 25 25 24 23 22 20 19 19 18 18 17 16 16 15 14 14 13 12 11 9 9 8 7 6 5 4 3 3 3 2 2 2 2 2 3 3
34 34 35 36 35 33 31 30 30 29 28 27 26 26 26 25 24 23 22 21 21 20 19 19 18 17 17 16 15 14 13 12 11 10 9 8 7 7 6 5 5 4 4 4 4 4 4 5 5
36 36 37 37 35 33 32 32 32 31 30 29 28 27 26 26 25 25 24 23 22 22 21 21 20 19 18 17 16 16 15 14 13 12 11 10 9 9 8 7 7 6 6 6 5 5 6 7 7
38 38 38 38 36 34 33 33 33 32 31 30 30 29 28 26 26 25 25 24 24 23 22 22 22 20 20 19 18 17 16 15 14 13 13 12 11 10 10 9 8 8 8 7 7 7 8 8 8
39 39 39 38 37 35 34 34 34 34 33 32 31 31 30 28 27 26 26 25 25 24 23 23 23 22 21 21 20 19 18 17 16 15 15 14 13 12 11 10 10 9 9 9 9 9 9 9 9
39 40 39 38 37 35 35 35 35 35 34 34 33 33 31 30 29 29 28 27 27 26 25 25 24 24 23 22 21 20 19 19 18 17 16 16 15 14 13 12 12 11 11 11 10 10 10 10 10
39 40 39 37 36 36 35 36 36 36 36 35 34 33 32 32 31 31 30 30 29 28 28 27 26 26 24 23 23 22 21 21 20 19 18 17 16 15 15 14 13 13 13 12 12 12 12 12 12
38 39 38 38 37 37 36 36 36 37 37 36 36 35 34 34 33 32 32 31 31 30 29 29 28 28 27 25 24 24 23 22 22 21 20 19 18 17 17 16 15 14 14 14 14 13 13 13 13
37 38 38 38 38 38 38 38 38 38 38 37 36 36 36 35 35 34 34 33 33 32 31 30 30 30 29 27 27 26 25 24 23 22 22 21 21 20 19 18 17 16 16 16 15 15 15 14 14
37 38 38 39 39 39 39 39 40 40 39 39 38 38 38 37 37 36 35 35 35 34 33 31 31 31 30 29 29 28 27 26 24 23 23 23 22 22 21 20 20 19 18 17 17 17 16 16 16
37 37 38 39 39 40 40 41 41 41 40 41 40 40 40 39 38 37 37 37 37 36 36 34 33 32 31 31 30 29 29 28 26 25 25 24 24 23 22 22 22 21 21 20 19 18 18 18 18
35 35 37 38 39 39 40 40 41 41 42 42 42 41 41 41 39 39 38 38 38 38 38 37 36 34 34 33 32 31 30 30 28 27 26 26 26 26 25 24 24 23 23 22 22 21 21 20 20
32 33 34 35 36 37 38 40 40 41 42 42 42 42 41 41 41 40 39 39 39 39 39 38 37 37 36 35 34 33 33 32 31 30 29 28 28 28 27 27 27 26 25 25 25 25 24 23 22
30 31 33 32 34 35 37 39 39 40 42 43 43 43 43 42 41 40 41 41 41 41 41 40 39 38 37 36 36 35 35 34 34 33 31 30 30 29 29 29 29 28 28 27 27 26 26 26 25
29 30 31 31 32 35 36 37 36 39 41 42 43 44 44 43 42 42 42 42 43 43 43 41 40 40 38 38 37 37 37 36 36 35 35 33 32 32 32 31 31 30 30 29 29 28 28 27 28
27 29 30 31 32 33 35 36 35 36 39 41 43 44 45 45 44 43 43 44 43 44 44 43 42 41 40 40 39 39 38 38 37 37 37 36 35 34 34 34 33 33 32 31 31 30 30 29 29
26 28 29 30 31 32 33 34 35 35 37 39 41 43 44 44 44 44 44 44 44 45 45 45 43 42 42 41 40 40 40 39 39 38 38 37 36 35 35 35 34 34 34 33 33 32 32 32 32
25 26 28 29 30 31 31 33 34 34 35 37 39 40 41 42 43 44 44 45 45 45 46 45 45 44 43 42 41 41 41 41 40 40 39 38 38 37 36 36 36 36 36 35 34 34 34 34 34
22 25 27 28 29 30 31 32 33 33 35 35 37 38 39 39 41 43 45 46 46 47 47 46 46 46 44 43 43 42 42 42 42 42 40 40 39 39 38 37 37 37 37 37 37 36 35 35 35
20 22 25 27 29 29 31 33 33 33 34 35 37 38 39 39 40 42 43 45 47 48 48 48 47 47 46 45 44 44 43 43 42 42 41 41 41 40 40 39 39 39 39 39 38 38 37 36 36
19 21 23 26 27 29 30 33 34 34 34 34 36 37 39 39 40 42 43 44 46 48 49 49 48 48 47 46 45 45 45 44 43 43 43 42 42 41 41 40 40 40 40 40 40 39 38 38 37
19 20 22 25 27 29 29 33 33 34 33 34 35 35 36 38 39 41 42 43 45 47 48 49 49 49 48 47 47 46 46 45 45 45 45 44 43 42 41 42 42 42 42 41 41 40 39 38 38
17 19 21 23 25 28 28 32 33 32 33 33 34 34 35 36 38 39 41 42 44 46 47 48 48 48 49 48 48 47 47 46 46 46 45 45 43 42 42 43 43 43 43 43 43 42 41 40 40
16 18 20 23 24 26 27 31 32 32 33 33 33 33 34 36 37 38 40 41 42 44 46 47 48 48 48 49 49 48 48 47 46 46 46 45 45 44 44 44 43 43 43 43 44 43 42 42 42
16 17 19 22 24 25 27 29 31 31 32 33 33 33 33 35 36 37 39 40 42 44 45 46 47 48 48 48 49 49 49 48 48 48 47 46 46 45 45 44 44 44 44 43 43 43 43 43 43
16 17 18 20 22 24 26 27 28 28 29 31 32 33 33 34 35 36 37 40 42 45 46 46 47 48 49 49 50 49 49 49 48 48 47 47 46 45 44 45 45 44 44 44 44 44 44 44 44
15 16 18 19 21 23 25 26 26 27 27 29 30 31 32 33 34 36 37 39 41 44 46 46 47 47 48 49 49 49 49 49 49 47 47 47 47 46 46 46 46 45 45 45 45 45 45 45 45
16 17 17 19 19 21 24 23 24 26 26 27 29 31 31 32 34 36 37 39 40 43 45 46 47 48 49 49 49 49 50 50 50 49 47 47 47 47 46 46 46 46 47 47 46 45 45 46 46
Wind_Direction
237 235 233 233 234 234 234 233 233 233 233 232 231 231 230 230 230 231 230 229 227 227 226 223 222 219 217 216 214 212 211 210 208 204 199 196 195 193 188 187 190 192 180 169 152 129 56 356 333
236 235 234 233 233 234 233 233 233 233 234 232 231 231 230 231 231 232 232 231 229 228 228 225 225 223 220 218 217 216 216 216 216 215 211 210 210 211 212 212 216 220 216 220 230 242 261 283 288
236 235 235 234 233 233 233 233 233 234 234 233 232 232 231 231 231 232 232 232 230 229 228 227 226 225 223 222 221 220 220 221 222 222 221 222 223 225 226 227 229 229 225 229 250 266 270 277 281
236 235 235 235 234 233 233 233 233 234 233 233 232 232 232 231 230 230 231 232 231 230 229 227 225 225 225 224 223 223 224 225 226 226 229 230 230 232 236 235 236 238 239 243 256 267 273 277 280
235 236 236 237 235 233 233 232 232 233 233 233 233 233 232 231 231 231 230 231 231 230 229 227 226 226 226 226 225 224 226 228 229 229 232 233 234 237 240 241 241 242 243 248 257 269 276 280 282
236 236 237 237 236 234 233 232 232 232 231 231 232 233 232 232 231 230 231 231 230 229 228 227 226 226 226 227 228 227 228 229 231 232 233 234 237 240 242 245 244 241 244 250 258 269 276 278 281
237 237 239 239 237 235 233 231 231 231 230 231 232 232 232 232 231 231 230 230 229 229 228 227 227 227 228 229 230 231 231 232 234 235 236 237 239 242 245 246 246 247 249 253 261 269 275 279 278
237 238 238 238 236 235 233 232 231 231 231 231 232 233 232 232 232 232 231 230 230 230 229 229 229 228 229 230 231 232 233 234 235 236 238 239 240 241 244 246 247 251 254 257 262 269 274 278 279
236 237 237 237 236 234 232 232 232 232 231 231 232 233 233 232 232 232 233 232 231 231 231 230 230 229 230 231 232 234 234 235 236 237 238 240 241 243 245 246 248 251 257 261 264 267 271 276 279
235 236 236 236 236 235 233 233 234 233 232 232 233 233 233 232 232 232 233 233 232 232 232 232 231 231 231 232 234 235 236 236 238 239 240 242 243 245 246 247 249 253 257 262 265 268 271 275 278
235 236 237 237 236 235 234 234 234 234 233 233 234 234 233 233 232 232 232 233 232 231 231 231 231 232 233 234 234 236 237 237 239 241 241 243 244 246 248 249 251 255 259 261 265 269 272 275 277
237 238 238 237 236 236 235 235 235 234 235 234 234 234 233 233 232 232 232 232 231 230 230 231 231 232 232 233 235 237 238 238 239 242 243 243 245 247 248 250 252 255 258 262 264 268 271 275 277
238 238 238 237 237 236 236 236 236 236 235 235 235 234 234 233 233 233 233 232 231 231 231 231 232 233 234 235 236 237 238 239 240 243 245 245 246 248 249 250 253 256 258 261 265 268 270 274 278
236 237 238 238 238 236 236 236 236 236 235 235 235 235 234 234 234 233 233 233 232 232 231 232 233 234 235 236 238 239 240 241 242 244 246 247 248 249 250 252 254 257 260 262 264 267 270 272 275
237 238 239 239 238 236 235 235 235 235 235 235 234 234 234 235 234 234 233 233 233 232 232 232 233 235 236 236 238 240 241 242 243 245 247 249 249 249 250 252 255 258 261 263 265 268 270 271 274
239 239 238 237 237 236 235 235 235 235 235 234 234 234 234 235 235 234 234 233 233 233 232 232 232 234 236 237 238 240 242 244 244 246 248 249 250 250 250 252 254 257 260 262 264 267 270 271 273
239 239 238 236 236 237 236 236 235 236 236 236 235 235 235 235 235 235 234 233 233 233 232 232 232 234 236 237 238 240 241 244 245 247 249 250 251 251 252 253 255 257 260 262 264 266 268 270 272
240 239 238 237 236 238 238 238 236 237 238 238 237 237 236 236 236 236 234 233 233 233 233 233 233 234 236 238 240 241 242 244 246 247 249 250 252 252 252 253 255 257 260 262 264 266 267 269 272
243 242 240 238 238 240 240 240 238 239 239 238 238 238 238 237 236 236 234 233 232 232 232 233 233 234 236 238 241 242 243 244 246 248 250 251 252 253 253 254 256 258 260 262 263 266 267 268 271
245 243 241 240 240 242 242 241 239 239 240 239 239 238 238 238 236 236 234 233 233 232 232 233 234 235 237 239 241 243 244 244 246 248 250 251 252 253 254 257 257 259 260 261 264 266 267 268 270
247 245 244 244 241 242 244 243 240 240 240 239 238 238 238 238 237 237 235 233 234 233 233 234 235 236 237 240 242 243 245 246 246 248 250 251 252 253 255 257 258 259 261 263 264 266 267 269 271
250 247 245 246 246 245 245 245 240 238 240 240 241 239 238 238 238 237 236 235 235 234 234 235 236 237 238 240 242 244 246 248 248 248 249 251 253 254 255 257 258 260 261 263 264 266 267 269 270
252 250 247 247 250 248 246 247 243 239 240 241 242 242 240 239 239 238 237 236 236 236 235 235 236 237 238 240 243 245 246 247 248 249 250 252 253 253 254 256 258 260 261 263 264 265 266 268 270
253 252 251 253 253 250 247 248 247 243 243 244 243 243 242 240 239 239 237 236 236 236 236 236 237 238 239 240 242 244 246 247 248 249 250 252 254 254 255 256 257 259 260 261 262 263 265 267 269
255 253 254 257 257 255 251 251 250 247 247 247 244 243 243 241 240 239 238 237 238 237 236 235 237 238 239 240 242 244 246 247 247 248 249 251 252 254 255 255 256 258 259 260 261 262 264 266 269
255 253 258 261 262 260 255 254 253 250 250 249 248 246 246 243 240 239 238 238 238 237 237 236 238 239 239 240 242 244 246 246 246 248 248 250 251 253 254 255 256 257 258 260 262 263 264 266 268
260 259 263 266 265 262 259 257 255 253 253 250 248 249 247 245 242 240 239 238 238 237 237 238 240 241 240 241 243 244 246 247 247 249 249 249 250 251 253 254 255 257 258 260 261 263 265 266 268
265 268 269 269 270 264 262 260 257 253 253 250 248 249 248 246 244 241 240 239 239 238 238 239 241 242 242 242 243 244 245 246 247 249 250 250 250 251 253 255 256 258 258 259 261 264 265 265 267
274 273 272 273 273 269 267 264 259 256 255 251 250 251 250 247 245 242 242 242 242 240 239 240 242 243 244 244 244 245 245 245 246 247 250 250 250 251 254 255 256 258 259 261 263 264 265 266 268
280 276 273 272 275 274 270 267 263 259 256 254 253 251 251 249 247 244 243 244 244 241 241 242 243 244 244 245 245 245 245 245 245 247 249 250 252 253 254 255 257 259 261 262 263 265 266 267 268
Height
5831 5833 5836 5838 5841 5843 5846 5850 5853 5855 5857 5859 5861 5863 5864 5866 5869 5872 5872 5871 5873 5874 5875 5876 5877 5878 5878 5879 5880 5881 5881 5882 5882 5882 5882 5882 5882 5882 5882 5882 5882 5882 5882 5882 5882 5881 5881 5881 5881
5824 5827 5829 5831 5834 5837 5842 5845 5848 5850 5852 5854 5857 5859 5860 5862 5864 5866 5867 5868 5870 5871 5872 5874 5875 5876 5877 5878 5878 5879 5880 5881 5881 5881 5882 5882 5882 5882 5882 5882 5882 5882 5882 5881 5881 5881 5881 5880 5880
5817 5819 5823 5825 5827 5833 5838 5841 5843 5845 5847 5850 5852 5854 5856 5859 5860 5862 5864 5865 5867 5868 5870 5871 5872 5874 5875 5875 5877 5877 5878 5879 5880 5880 5881 5881 5881 5881 5881 5881 5881 5881 5881 5881 5880 5880 5880 5879 5879
5809 5812 5815 5818 5822 5828 5832 5835 5837 5839 5842 5845 5847 5849 5852 5855 5856 5858 5860 5862 5864 5865 5866 5868 5870 5871 5872 5873 5874 5875 5876 5877 5878 5879 5879 5879 5879 5879 5880 5880 5880 5880 5880 5880 5880 5879 5879 5878 5878
5801 5805 5808 5811 5816 5822 5825 5828 5831 5833 5836 5839 5842 5844 5847 5850 5852 5854 5856 5858 5860 5861 5863 5865 5867 5868 5869 5870 5871 5873 5874 5875 5876 5877 5877 5878 5878 5878 5878 5878 5878 5878 5878 5878 5878 5878 5878 5877 5877
5793 5797 5801 5804 5810 5815 5818 5821 5824 5827 5830 5833 5836 5839 5841 5844 5847 5850 5851 5853 5855 5857 5859 5861 5863 5865 5866 5867 5869 5870 5871 5872 5873 5874 5875 5875 5876 5876 5876 5876 5876 5876 5877 5877 5877 5876 5876 5876 5875
5786 5789 5793 5798 5802 5807 5811 5814 5817 5820 5824 5827 5830 5833 5836 5839 5842 5844 5847 5849 5851 5853 5855 5857 5859 5861 5862 5864 5865 5867 5868 5869 5871 5871 5872 5873 5873 5874 5874 5874 5874 5874 5874 5874 5874 5874 5874 5873 5873
5776 5781 5785 5789 5794 5799 5803 5806 5810 5813 5817 5820 5823 5826 5830 5833 5836 5839 5841 5844 5846 5848 5851 5853 5855 5857 5859 5860 5862 5863 5865 5866 5867 5868 5869 5870 5871 5871 5871 5872 5872 5872 5872 5872 5872 5872 5871 5871 5870
5767 5772 5776 5782 5786 5791 5795 5798 5802 5806 5809 5813 5816 5820 5824 5826 5829 5832 5835 5838 5841 5843 5846 5848 5850 5852 5854 5856 5858 5859 5861 5862 5863 5864 5866 5867 5867 5868 5869 5869 5869 5869 5869 5869 5869 5869 5868 5868 5867
5758 5763 5769 5774 5777 5782 5786 5790 5794 5798 5802 5805 5809 5812 5816 5819 5822 5825 5829 5832 5835 5837 5840 5843 5845 5847 5850 5852 5854 5855 5856 5858 5859 5861 5862 5863 5864 5865 5865 5866 5866 5866 5866 5866 5866 5866 5865 5865 5864
5749 5754 5760 5764 5768 5772 5777 5782 5785 5789 5793 5798 5801 5805 5808 5811 5815 5818 5821 5824 5828 5831 5834 5836 5839 5842 5844 5847 5849 5850 5852 5853 5855 5856 5857 5858 5860 5861 5861 5862 5862 5863 5863 5863 5863 5862 5862 5862 5861
5741 5746 5750 5754 5758 5763 5768 5772 5776 5780 5785 5789 5792 5795 5799 5803 5807 5810 5813 5816 5820 5823 5827 5830 5833 5836 5839 5841 5843 5845 5847 5849 5850 5852 5853 5854 5855 5856 5857 5858 5858 5859 5859 5859 5859 5858 5858 5858 5857
5732 5737 5740 5744 5748 5753 5757 5761 5766 5771 5775 5778 5782 5786 5790 5794 5798 5801 5804 5808 5812 5816 5820 5823 5826 5830 5833 5835 5837 5839 5842 5843 5845 5847 5848 5849 5850 5851 5852 5853 5853 5854 5854 5854 5854 5854 5854 5854 5853
5724 5727 5731 5735 5738 5742 5746 5751 5755 5761 5764 5768 5772 5776 5781 5785 5789 5793 5796 5800 5804 5808 5812 5816 5820 5823 5826 5829 5831 5834 5836 5838 5840 5841 5842 5844 5845 5846 5847 5848 5849 5849 5849 5850 5850 5849 5849 5849 5849
5716 5719 5722 5725 5728 5732 5736 5741 5746 5751 5754 5758 5762 5766 5771 5775 5780 5784 5788 5792 5796 5800 5804 5808 5812 5816 5819 5822 5825 5827 5829 5832 5834 5835 5836 5838 5839 5840 5841 5842 5843 5844 5844 5844 5844 5844 5844 5844 5844
5708 5711 5714 5718 5720 5723 5728 5732 5738 5741 5744 5748 5752 5757 5761 5766 5770 5774 5778 5782 5786 5791 5795 5800 5804 5808 5812 5815 5817 5820 5822 5825 5827 5828 5830 5831 5833 5834 5835 5836 5837 5837 5838 5838 5838 5839 5839 5838 5838
5701 5703 5706 5711 5713 5715 5719 5723 5728 5731 5734 5738 5742 5747 5751 5756 5760 5765 5769 5773 5777 5782 5787 5791 5796 5800 5804 5807 5810 5812 5815 5817 5819 5821 5823 5825 5826 5827 5828 5829 5830 5831 5831 5832 5832 5832 5832 5832 5832
5695 5697 5699 5703 5705 5708 5711 5715 5719 5722 5725 5729 5732 5736 5740 5745 5750 5754 5759 5763 5768 5772 5778 5783 5787 5792 5795 5799 5802 5804 5807 5809 5811 5813 5815 5817 5819 5820 5821 5822 5823 5824 5825 5825 5825 5826 5826 5826 5826
5689 5691 5693 5696 5698 5700 5703 5706 5710 5713 5716 5719 5722 5726 5730 5735 5739 5743 5748 5754 5758 5763 5768 5774 5778 5783 5787 5790 5794 5797 5799 5802 5804 5806 5807 5809 5811 5812 5813 5814 5816 5817 5817 5818 5818 5818 5819 5819 5818
5682 5684 5686 5689 5691 5693 5696 5698 5702 5704 5707 5710 5713 5717 5721 5725 5729 5733 5738 5744 5749 5754 5759 5764 5769 5774 5778 5782 5785 5788 5790 5793 5795 5797 5799 5801 5802 5804 5805 5806 5808 5809 5809 5810 5810 5811 5811 5811 5811
5676 5678 5680 5682 5684 5686 5688 5690 5693 5696 5698 5701 5704 5707 5711 5715 5719 5724 5728 5733 5739 5744 5749 5755 5760 5765 5769 5773 5776 5779 5781 5783 5786 5788 5790 5792 5794 5796 5797 5798 5799 5800 5801 5802 5802 5803 5803 5803 5803
5671 5672 5674 5676 5677 5679 5681 5682 5686 5688 5690 5693 5696 5699 5703 5707 5710 5714 5718 5723 5728 5734 5739 5745 5750 5755 5759 5763 5766 5769 5772 5775 5778 5780 5782 5784 5785 5787 5788 5790 5791 5792 5793 5794 5794 5795 5795 5795 5795
5666 5667 5668 5670 5670 5672 5674 5674 5678 5680 5683 5686 5689 5692 5694 5698 5702 5705 5709 5713 5718 5723 5729 5734 5740 5745 5749 5753 5757 5760 5763 5765 5768 5770 5772 5774 5776 5778 5779 5781 5782 5783 5784 5785 5786 5786 5787 5787 5787
5661 5663 5663 5664 5664 5665 5667 5668 5670 5673 5676 5679 5681 5684 5686 5689 5693 5696 5700 5704 5708 5713 5718 5723 5729 5734 5739 5743 5747 5750 5753 5755 5757 5760 5762 5765 5767 5768 5770 5771 5773 5774 5775 5776 5777 5777 5778 5778 5778
5658 5658 5658 5657 5657 5658 5660 5660 5664 5667 5669 5671 5674 5676 5678 5681 5684 5687 5691 5695 5699 5703 5708 5713 5718 5723 5728 5732 5736 5739 5742 5744 5746 5749 5752 5754 5757 5758 5760 5762 5763 5764 5765 5766 5767 5768 5769 5769 5769
5653 5654 5653 5652 5651 5653 5653 5653 5657 5660 5661 5663 5666 5668 5670 5672 5675 5678 5682 5686 5690 5693 5698 5702 5707 5712 5716 5721 5724 5728 5730 5732 5735 5738 5741 5743 5746 5748 5750 5751 5753 5754 5756 5757 5757 5758 5759 5759 5759
5648 5648 5648 5647 5646 5646 5647 5648 5651 5652 5654 5655 5658 5660 5662 5664 5667 5670 5674 5677 5680 5684 5688 5692 5696 5701 5705 5709 5713 5716 5719 5722 5725 5728 5730 5733 5735 5737 5739 5741 5743 5744 5746 5747 5747 5748 5749 5749 5749
5645 5644 5643 5642 5640 5640 5641 5642 5643 5645 5647 5649 5651 5652 5654 5657 5659 5662 5665 5668 5672 5675 5679 5682 5686 5690 5694 5698 5701 5705 5708 5711 5714 5717 5720 5722 5724 5726 5728 5730 5732 5734 5735 5736 5737 5738 5738 5738 5738
5641 5640 5638 5637 5636 5635 5635 5639 5638 5639 5640 5641 5643 5645 5647 5649 5651 5654 5657 5660 5663 5666 5669 5673 5676 5679 5683 5686 5690 5693 5697 5700 5703 5706 5708 5711 5713 5715 5718 5720 5721 5723 5724 5725 5727 5727 5727 5728 5728
5636 5635 5634 5633 5632 5630 5630 5634 5632 5632 5633 5634 5636 5638 5639 5641 5643 5646 5649 5651 5654 5657 5660 5663 5666 5669 5672 5675 5678 5682 5685 5688 5692 5695 5698 5701 5703 5704 5707 5709 5710 5712 5713 5714 5715 5716 5716 5716 5716